HIMAWARI-8

Last updated on Thu Nov 21 2024 00:02:19 GMT+0000 (Coordinated Universal Time)

1 40267U 14060A 24324.60118709 -.00000274 00000+0 00000+0 0 9999 2 40267 0.0608 99.7534 0001270 146.8834 169.5895 1.00272270 36997
UTC large
Height (km)
Speed (km/s)
/
Latitude / Longitude
Inclination (degrees)
Orbital Period (minutes)
Azimuth
Elevation
Range (km)
Doppler Factor

Next 0 passes for location: London (51.5072 / 0.1276)

Sorry there are no passes over London.